Regional Weather Roundup
Issued by NWS Jackson, KY

Home | Current Version | Previous Version | Graphics & Text | Print | Product List | Glossary On
Versions: 1 2 3 4 5 6 7 8 9 10 11 12 13 14 15 16 17 18 19 20 21 22 23 24 25 26 27 28 29 30 31 32 33 34 35 36 37 38 39 40 41 42 43 44 45 46 47 48 49 50
000
ASUS43 KJKL 021810
RWRJKL

EAST KENTUCKY HOURLY WEATHER ROUNDUP
NATIONAL WEATHER SERVICE JACKSON KY
200 PM EDT THU JUL 02 2015

NOTE: "FAIR" INDICATES FEW OR NO CLOUDS BELOW 12,000 FEET WITH
NO SIGNIFICANT WEATHER AND/OR OBSTRUCTIONS TO VISIBILITY.

* THESE REPORTS ARE NOT UNDER NWS QUALITY CONTROL AND MAY NOT
  REPORT WEATHER SUCH AS PRECIPITATION AND FOG.

KYZ079-080-083-085-087-088-110-112-115-119-120-021900
...EASTERN KENTUCKY...

CITY           SKY/WX    TMP DP  RH WIND       PRES   REMARKS
JACKSON        CLOUDY    70  67  90 VRB3      29.94S
6HR MIN TEMP:  65; 6HR MAX TEMP:  70; 6HR PCP:  0.65;

LONDON         CLOUDY    75  64  68 SW8       29.94S
6HR MIN TEMP:  67; 6HR MAX TEMP:  76; 6HR PCP:  0.06;

MONTICELLO*    PTSUNNY   77  69  76 SW9       29.96S
6HR MIN TEMP:  68; 6HR MAX TEMP:  78;

HAZARD APT*    CLOUDY    73  72  94 SW6       29.94F
BLACK MTN*       N/A     61  61 100 SW3         N/A
PIKEVILLE APT* LGT RAIN  68  66  94 CALM      29.95F
MOREHEAD APT*  CLOUDY    73  68  83 CALM      29.94S
$$

KYZ035-036-041-042-044-050-067-078-099-021900
...CENTRAL KENTUCKY...

CITY           SKY/WX    TMP DP  RH WIND       PRES   REMARKS
FLEMING/MASON* CLOUDY    73  68  83 SE3       29.92
LEXINGTON      PTSUNNY   76  69  79 VRB5      29.91S
6HR MIN TEMP:  68; 6HR MAX TEMP:  76; 6HR PCP:  0.49;

FRANKFORT      MOSUNNY   77  69  76 SW5       29.88S
6HR MIN TEMP:  68; 6HR MAX TEMP:  77; 6HR PCP:  0.69;

$$

KYZ091>093-OHZ055-061-077-WVZ005-015-034-035-042-021900
...SOUTHERN OHIO/WEST VIRGINIA...

CITY           SKY/WX    TMP DP  RH WIND       PRES   REMARKS
COVINGTON      CLOUDY    75  68  78 SE7       29.90S
COLUMBUS       CLOUDY    69  61  75 SE6       29.95S
DAYTON         CLOUDY    73  63  70 E10       29.94S
WILMINGTON     PTSUNNY   71  65  81 E9        29.92S HAZE
HUNTINGTON     LGT RAIN  65  64  97 E8        29.93S FOG
CHARLESTON     LGT RAIN  69  64  84 VRB5      29.94S
BECKLEY        RAIN      62  56  80 NE3       30.02S
BLUEFIELD      LGT RAIN  67  62  84 W6        30.03S
$$

VAZ002-007-008-TNZ017-027-036-066-071-021900
...SOUTHWEST VIRGINIA/EAST TENNESSEE...

CITY           SKY/WX    TMP DP  RH WIND       PRES   REMARKS
BRISTOL        CLOUDY    71  66  84 SW12      29.98F
KNOXVILLE      LGT RAIN  70  66  87 S13       29.97F
OAK RIDGE      CLOUDY    72  68  87 SW3       29.99F
CROSSVILLE     CLOUDY    73  67  81 VRB6      30.00S
NASHVILLE      CLOUDY    78  73  84 S8        29.93S
$$

...KEY TO REMARKS...
VSB - VISIBILITY IN MILES
WCI - WIND CHILL INDEX
HX  - HEAT INDEX

$$


USA.gov is the U.S. government's official web portal to all federal, state and local government web resources and services.